CW5439 Weather Reports


Display with metric or nautical units.
time (UTC)temp
F
wind
direction
speed
MPH
gust
MPH
rain 1hr
in
rain 24hr
in
rain mn
in
humidity
%
barometer
mb
20260506073205 44 111 2.0 7.0 0.00 0.00 0.00 75 1016.0
20260506072705 44 41 2.0 7.0 0.00 0.00 0.00 76 1016.1
20260506072206 43 86 2.0 7.0 0.00 0.00 0.00 77 1016.0
20260506071706 42 42 2.0 4.0 0.00 0.00 0.00 79 1016.0
20260506071205 42 44 2.0 4.0 0.00 0.00 0.00 80 1016.0
20260506070705 42 47 2.0 4.0 0.00 0.00 0.00 80 1016.0
20260506070205 42 57 2.0 3.0 0.00 0.00 0.00 81 1016.0
20260506062206 39 70 0.0 0.0 0.00 0.00 0.00 84 1015.9
20260506061706 39 70 0.0 0.0 0.00 0.00 0.00 84 1016.0
20260506061205 39 70 0.0 0.0 0.00 0.00 0.00 85 1016.0
20260506060703 38 70 0.0 2.0 0.00 0.00 0.00 85 1016.0
20260506060229 38 70 0.0 2.0 0.00 0.00 0.00 85 1015.9
20260506051205 36 70 0.0 1.0 0.00 0.00 0.00 83 1016.0
20260506050705 36 70 0.0 1.0 0.00 0.00 0.00 83 1016.1
20260506050205 36 70 0.0 1.0 0.00 0.00 0.00 83 1016.1
20260506044705 36 70 0.0 2.0 0.00 0.00 0.00 83 1016.0
20260506043705 36 70 1.0 2.0 0.00 0.00 0.00 82 1016.0
20260506043205 36 70 1.0 2.0 0.00 0.00 0.00 82 1016.0
20260506042713 36 70 0.0 1.0 0.00 0.00 0.00 82 1016.0
20260506042206 36 70 0.0 1.0 0.00 0.00 0.00 81 1015.9
20260506041705 36 70 0.0 2.0 0.00 0.00 0.00 81 1016.0
20260506041210 36 70 1.0 2.0 0.00 0.00 0.00 81 1015.9
20260506040705 36 70 1.0 2.0 0.00 0.00 0.00 80 1016.0
20260506040205 36 70 0.0 1.0 0.00 0.00 0.00 80 1015.9
20260506035705 36 70 0.0 2.0 0.00 0.00 0.00 79 1016.0
20260506035206 36 70 0.0 2.0 0.00 0.00 0.00 79 1016.0
20260506034705 37 70 1.0 2.0 0.00 0.00 0.00 79 1015.9
20260506034205 37 70 1.0 2.0 0.00 0.00 0.00 79 1016.0
20260506033705 37 70 1.0 2.0 0.00 0.00 0.00 79 1016.0
20260506032705 37 70 1.0 3.0 0.00 0.00 0.00 78 1016.1
20260506031705 37 77 1.0 3.0 0.00 0.00 0.00 78 1016.1
20260506031205 38 77 2.0 3.0 0.00 0.00 0.00 78 1016.1
20260506030205 38 78 1.0 4.0 0.00 0.00 0.00 77 1016.2
20260506025704 38 78 1.0 4.0 0.00 0.00 0.00 77 1016.2
20260506025221 38 78 2.0 4.0 0.00 0.00 0.00 77 1016.1
20260506024706 38 76 2.0 4.0 0.00 0.00 0.00 77 1016.1
20260506024205 38 77 1.0 2.0 0.00 0.00 0.00 77 1016.1
20260506023205 39 77 1.0 3.0 0.00 0.00 0.00 76 1016.2
20260506022706 39 77 1.0 4.0 0.00 0.00 0.00 76 1016.2
20260506022205 39 76 2.0 4.0 0.00 0.00 0.00 76 1016.2
20260506021208 39 71 2.0 4.0 0.00 0.00 0.00 75 1016.1
20260506020705 39 71 2.0 4.0 0.00 0.00 0.00 76 1016.2
20260506020206 39 57 2.0 4.0 0.00 0.00 0.00 75 1016.3
20260506015705 39 67 2.0 4.0 0.00 0.00 0.00 75 1016.3
20260506015206 39 69 2.0 4.0 0.00 0.00 0.00 75 1016.3
20260506014205 39 64 2.0 4.0 0.00 0.00 0.00 75 1016.4
20260506013204 39 66 3.0 5.0 0.00 0.00 0.00 75 1016.4
20260506012705 39 68 3.0 5.0 0.00 0.00 0.00 75 1016.4
20260506012206 39 58 3.0 5.0 0.00 0.00 0.00 76 1016.4
20260506011705 39 76 3.0 5.0 0.00 0.00 0.00 76 1016.4
20260506011205 39 83 3.0 4.0 0.00 0.00 0.00 77 1016.5
20260506010705 39 70 3.0 4.0 0.00 0.00 0.00 77 1016.5
20260506010227 39 71 2.0 4.0 0.00 0.00 0.00 78 1016.5
20260506005205 39 44 1.0 3.0 0.00 0.00 0.00 79 1016.7
20260506004205 39 51 2.0 3.0 0.00 0.00 0.00 78 1016.7
20260506003707 39 36 2.0 3.0 0.00 0.00 0.00 78 1016.7
20260506003205 39 42 1.0 3.0 0.00 0.00 0.00 78 1016.7
20260506002705 39 50 2.0 3.0 0.00 0.00 0.00 78 1016.7
20260506002206 39 55 2.0 4.0 0.00 0.00 0.00 78 1016.7
20260506001705 39 51 2.0 4.0 0.00 0.00 0.00 78 1016.6
20260506001205 39 56 2.0 4.0 0.00 0.00 0.00 78 1016.6
20260506000705 39 41 2.0 3.0 0.00 0.00 0.00 78 1016.6
20260506000205 39 54 2.0 3.0 0.00 0.00 0.00 78 1016.6
20260505235705 39 51 2.0 4.0 0.00 0.00 0.00 78 1016.6
20260505235206 39 47 2.0 4.0 0.00 0.00 0.00 78 1016.7
20260505234231 39 38 2.0 4.0 0.00 0.00 0.00 77 1016.7
20260505233708 39 57 2.0 3.0 0.00 0.00 0.00 77 1016.7
20260505233205 39 57 2.0 4.0 0.00 0.00 0.00 77 1016.7
20260505232706 40 42 2.0 4.0 0.00 0.00 0.00 77 1016.8
20260505232205 40 73 2.0 3.0 0.00 0.00 0.00 76 1016.7
20260505231725 40 61 2.0 3.0 0.00 0.00 0.00 76 1016.7
20260505231205 40 47 2.0 3.0 0.00 0.00 0.00 76 1016.8
20260505230205 40 55 2.0 4.0 0.00 0.00 0.00 76 1016.8
20260505225705 40 54 2.0 4.0 0.00 0.00 0.00 76 1016.8
20260505225205 41 49 2.0 4.0 0.00 0.00 0.00 75 1016.8
20260505224731 41 57 1.0 4.0 0.00 0.00 0.00 75 1016.8
20260505224205 41 57 1.0 4.0 0.00 0.00 0.00 75 1016.8
20260505223206 41 69 2.0 4.0 0.00 0.00 0.00 75 1016.8
20260505222705 41 59 2.0 6.0 0.00 0.00 0.00 75 1016.8
20260505222206 41 47 2.0 6.0 0.00 0.00 0.00 75 1016.8
20260505221705 41 52 3.0 6.0 0.00 0.00 0.00 75 1016.8
20260505221204 41 82 3.0 4.0 0.00 0.00 0.00 75 1016.8
20260505220705 41 67 3.0 4.0 0.00 0.00 0.00 75 1016.9
20260505220205 41 57 2.0 4.0 0.00 0.00 0.00 75 1016.9
20260505215205 41 60 2.0 5.0 0.00 0.00 0.00 74 1017.0
20260505214705 41 65 2.0 5.0 0.00 0.00 0.00 74 1016.9
20260505214205 41 61 2.0 5.0 0.00 0.00 0.00 74 1016.9
20260505213205 41 49 3.0 7.0 0.00 0.00 0.00 74 1016.9
20260505212705 42 71 3.0 7.0 0.00 0.00 0.00 73 1016.8
20260505212206 42 57 3.0 5.0 0.00 0.00 0.00 73 1016.8
20260505211205 42 51 3.0 6.0 0.00 0.00 0.00 72 1016.9
20260505210206 42 60 3.0 6.0 0.00 0.00 0.00 72 1016.8
20260505205705 42 65 3.0 6.0 0.00 0.00 0.00 72 1016.8
20260505205211 42 42 3.0 6.0 0.00 0.00 0.00 72 1016.8
20260505204707 42 52 4.0 6.0 0.00 0.00 0.00 72 1016.8
20260505204205 43 69 3.0 5.0 0.00 0.00 0.00 71 1016.8
20260505203705 43 53 3.0 7.0 0.00 0.00 0.00 71 1016.8
20260505202705 43 66 4.0 9.0 0.00 0.00 0.00 71 1016.8
20260505202206 43 65 4.0 9.0 0.00 0.00 0.00 70 1016.8
20260505201206 43 63 4.0 9.0 0.00 0.00 0.00 71 1016.8
20260505200705 43 83 5.0 9.0 0.00 0.00 0.00 71 1016.8
20260505195705 44 69 5.0 10.0 0.00 0.00 0.00 72 1016.7
20260505194705 44 73 5.0 10.0 0.00 0.00 0.00 71 1016.7
20260505194206 44 55 5.0 10.0 0.00 0.00 0.00 71 1016.7
20260505193704 44 92 5.0 12.0 0.00 0.00 0.00 71 1016.6
20260505192705 44 61 6.0 13.0 0.00 0.00 0.00 71 1016.6
20260505191704 44 107 6.0 12.0 0.00 0.00 0.00 70 1016.5
20260505191205 44 96 6.0 14.0 0.00 0.00 0.00 70 1016.5
20260505190705 44 105 6.0 14.0 0.00 0.00 0.00 70 1016.5
20260505190205 44 86 7.0 14.0 0.00 0.00 0.00 70 1016.4
20260505185206 44 82 6.0 12.0 0.00 0.00 0.00 70 1016.4
20260505184705 44 70 7.0 14.0 0.00 0.00 0.00 70 1016.4
20260505184205 44 105 8.0 14.0 0.00 0.00 0.00 71 1016.4
20260505183711 44 105 9.0 16.0 0.00 0.00 0.00 71 1016.4
20260505183205 44 78 8.0 16.0 0.00 0.00 0.00 70 1016.4
20260505182705 44 96 9.0 16.0 0.00 0.00 0.00 70 1016.4
20260505182205 44 101 8.0 15.0 0.00 0.00 0.00 69 1016.3
20260505181732 45 51 7.0 15.0 0.00 0.00 0.00 70 1016.4
20260505181229 45 55 7.0 15.0 0.00 0.00 0.00 71 1016.4
20260505180705 45 80 9.0 16.0 0.00 0.00 0.00 70 1016.4
20260505180205 45 113 10.0 16.0 0.00 0.00 0.00 70 1016.4
20260505175705 45 84 10.0 16.0 0.00 0.00 0.00 69 1016.4
20260505175205 45 51 10.0 15.0 0.00 0.00 0.00 70 1016.4
20260505174705 45 112 9.0 15.0 0.00 0.00 0.00 69 1016.3
20260505174205 45 74 8.0 15.0 0.00 0.00 0.00 69 1016.4
20260505173705 45 114 8.0 14.0 0.00 0.00 0.00 68 1016.4
20260505173205 45 96 9.0 13.0 0.00 0.00 0.00 68 1016.3
20260505172705 46 46 9.0 14.0 0.00 0.00 0.00 69 1016.3
20260505172206 46 75 8.0 16.0 0.00 0.00 0.00 69 1016.2
20260505171705 45 70 8.0 18.0 0.00 0.00 0.00 69 1016.3
20260505171205 45 73 10.0 18.0 0.00 0.00 0.00 69 1016.3
20260505170704 46 118 10.0 16.0 0.00 0.00 0.00 69 1016.3
20260505170205 46 94 10.0 16.0 0.00 0.00 0.00 69 1016.3
20260505165705 46 80 9.0 16.0 0.00 0.00 0.00 69 1016.3
20260505165205 46 95 8.0 14.0 0.00 0.00 0.00 69 1016.2
20260505164705 46 96 9.0 16.0 0.00 0.00 0.00 68 1016.2
20260505164205 46 86 9.0 17.0 0.00 0.00 0.00 69 1016.1
20260505163705 46 92 9.0 17.0 0.00 0.00 0.00 69 1016.1
20260505163205 46 107 9.0 17.0 0.00 0.00 0.00 70 1016.1
20260505162705 46 98 8.0 16.0 0.00 0.00 0.00 70 1016.1
20260505162206 46 93 9.0 15.0 0.00 0.00 0.00 71 1016.1
20260505161706 46 83 9.0 16.0 0.00 0.00 0.00 71 1016.1
20260505161205 46 86 9.0 17.0 0.00 0.00 0.00 72 1016.2
20260505160705 46 81 9.0 18.0 0.00 0.00 0.00 73 1016.2
20260505160205 45 81 9.0 18.0 0.00 0.00 0.00 73 1016.2
20260505153205 46 59 10.0 16.0 0.00 0.00 0.00 75 1016.1
20260505152206 46 103 9.0 16.0 0.00 0.00 0.00 74 1016.1
20260505151705 46 98 10.0 16.0 0.00 0.00 0.00 75 1016.1
20260505151205 46 87 10.0 16.0 0.00 0.00 0.00 74 1016.2
20260505150704 46 132 9.0 15.0 0.00 0.00 0.00 75 1016.2
20260505150206 46 74 8.0 15.0 0.00 0.00 0.00 75 1016.1
20260505140205 49 69 11.0 15.0 0.00 0.00 0.00 73 1015.7
20260505130205 49 75 8.0 16.0 0.00 0.00 0.00 73 1015.5
20260505124206 48 34 7.0 13.0 0.00 0.00 0.00 74 1015.4
20260505123205 47 41 8.0 13.0 0.00 0.00 0.00 75 1015.4
20260505122705 47 53 7.0 15.0 0.00 0.00 0.00 76 1015.5
20260505122206 47 355 8.0 18.0 0.00 0.00 0.00 76 1015.5
20260505121705 47 61 10.0 18.0 0.00 0.00 0.00 76 1015.5
20260505121205 47 55 9.0 16.0 0.00 0.00 0.00 76 1015.4
20260505120732 47 64 8.0 16.0 0.00 0.00 0.00 76 1015.4
20260505120205 47 57 8.0 14.0 0.00 0.00 0.00 76 1015.3
20260505115205 47 88 8.0 16.0 0.00 0.00 0.00 77 1015.3
20260505114705 47 74 8.0 16.0 0.00 0.00 0.00 77 1015.3
20260505114206 47 55 9.0 16.0 0.00 0.00 0.00 77 1015.3
20260505113205 47 103 9.0 19.0 0.00 0.00 0.00 76 1015.1
20260505112705 47 94 10.0 19.0 0.00 0.00 0.00 76 1015.1
20260505112206 47 57 9.0 15.0 0.00 0.00 0.00 75 1015.0
20260505111205 48 103 9.0 15.0 0.00 0.00 0.00 74 1014.9
20260505110705 49 55 9.0 15.0 0.00 0.00 0.00 74 1014.9
20260505110205 49 73 9.0 16.0 0.00 0.00 0.00 72 1014.9
20260505102206 53 51 4.0 12.0 0.00 0.00 0.00 58 1014.4
20260505100705 55 74 6.0 11.0 0.00 0.00 0.00 53 1014.4
20260505100205 53 82 5.0 10.0 0.00 0.00 0.00 62 1014.3
20260505095705 51 80 6.0 10.0 0.00 0.00 0.00 60 1014.4
20260505095211 51 38 6.0 11.0 0.00 0.00 0.00 63 1014.4
20260505094705 51 46 6.0 11.0 0.00 0.00 0.00 62 1014.4
20260505094205 51 46 5.0 12.0 0.00 0.00 0.00 61 1014.3
20260505093705 51 15 5.0 12.0 0.00 0.00 0.00 63 1014.4
20260505092704 52 355 6.0 11.0 0.00 0.00 0.00 63 1014.3
20260505092205 52 0 5.0 10.0 0.00 0.00 0.00 65 1014.2
20260505091704 51 335 5.0 15.0 0.00 0.00 0.00 63 1014.3
20260505091206 51 328 6.0 15.0 0.00 0.00 0.00 63 1014.3
20260505090705 51 11 7.0 15.0 0.00 0.00 0.00 67 1014.2
20260505085705 51 61 7.0 14.0 0.00 0.00 0.00 66 1014.2
20260505085205 51 10 7.0 13.0 0.00 0.00 0.00 67 1014.3
20260505084205 50 325 7.0 13.0 0.00 0.00 0.00 68 1014.2
20260505083705 50 344 7.0 11.0 0.00 0.00 0.00 68 1014.2
20260505083205 50 323 6.0 13.0 0.00 0.00 0.00 70 1014.1
20260505082206 50 335 8.0 14.0 0.00 0.00 0.00 70 1014.1
20260505081205 50 0 5.0 9.0 0.00 0.00 0.00 72 1014.0
20260505080705 50 309 5.0 14.0 0.00 0.00 0.00 73 1013.9
20260505080205 49 331 6.0 14.0 0.00 0.00 0.00 73 1013.8
20260505075705 49 5 7.0 14.0 0.00 0.00 0.00 73 1013.8
20260505075205 49 30 6.0 13.0 0.00 0.00 0.00 74 1013.8
20260505074705 49 340 6.0 13.0 0.00 0.00 0.00 76 1013.7